Wind_Speed
28 28 29 29 29 29 27 26 25 25 25 25 25 24 24 23 23 23 22 21 21 21 21 20 20 20 20 20 20 20 20 20 20 19 19 19 19 19 19 19 19 19 19 19 18 18 18 17 17
28 29 29 30 30 29 27 26 26 26 26 26 25 25 25 25 24 24 23 22 22 22 22 22 21 21 21 21 21 21 21 21 21 21 21 21 21 21 21 21 21 21 21 21 20 20 20 19 19
28 29 29 30 29 28 27 27 27 27 27 26 26 26 25 25 24 24 24 24 23 23 23 23 22 22 22 22 22 22 22 22 22 22 23 23 23 23 24 24 24 24 24 23 23 22 22 22 22
27 28 29 29 28 27 27 28 28 27 27 27 27 27 26 25 25 25 25 24 24 24 24 24 23 23 23 22 22 23 23 23 23 24 24 24 25 25 25 26 26 26 26 26 25 25 25 24 25
27 28 28 28 27 27 27 28 28 28 28 27 27 27 26 26 26 26 25 25 25 24 25 25 24 24 24 24 24 24 24 24 24 25 25 26 26 26 27 27 28 28 28 28 27 27 27 26 26
27 27 27 26 26 27 28 28 28 29 28 28 27 27 27 27 26 26 26 25 25 25 25 25 25 25 25 25 25 25 25 25 26 26 27 27 27 28 28 28 29 29 29 30 30 30 29 29 29
27 27 26 25 26 27 28 29 29 29 29 29 28 27 27 27 26 26 26 26 26 26 25 25 25 25 25 26 26 26 26 26 27 27 28 28 28 29 29 30 30 31 31 32 32 32 32 32 32
28 28 26 26 26 27 28 29 29 30 30 30 29 29 27 27 27 27 27 27 27 26 26 27 27 27 27 27 27 27 27 28 28 29 30 30 31 31 31 32 33 33 33 34 34 34 34 34 34
29 29 27 26 26 27 28 28 29 30 30 30 30 29 29 28 28 28 28 28 28 27 27 28 28 28 28 28 28 29 29 30 30 31 31 32 33 33 34 35 35 36 36 36 36 36 36 36 35
30 30 28 28 28 28 28 28 29 30 30 30 30 30 30 29 29 29 29 29 29 28 28 28 28 29 29 29 30 30 31 31 32 33 33 34 35 36 37 37 37 38 38 38 38 38 37 37 37
30 29 29 29 30 30 30 29 29 29 29 29 30 31 31 30 30 30 29 29 29 29 29 29 30 30 30 31 31 32 33 33 34 35 36 37 38 39 39 39 39 39 39 39 39 39 39 39 39
30 29 30 30 30 31 31 30 30 30 29 30 31 31 31 31 30 30 30 29 29 29 29 30 31 32 32 33 33 34 34 35 36 36 37 38 39 40 40 40 40 40 40 40 40 40 40 41 41
30 29 30 30 31 31 31 31 31 30 30 30 30 30 30 31 30 30 30 30 30 30 30 31 32 33 33 34 34 35 35 35 36 36 37 38 38 38 39 40 40 40 41 41 42 42 42 43 43
31 30 30 30 30 31 31 31 31 29 30 30 30 30 30 31 31 31 31 31 31 31 32 32 33 33 33 34 35 35 36 37 37 38 39 39 39 39 39 39 40 40 41 42 42 42 43 44 44
32 31 31 31 31 31 31 31 29 29 30 30 30 30 30 30 30 31 31 31 32 32 32 32 32 33 33 34 35 35 36 37 38 39 39 39 39 38 39 39 40 41 42 42 43 44 44 44 45
32 32 31 31 31 32 32 30 29 30 30 30 30 30 29 29 30 30 31 31 31 31 31 31 32 33 34 34 35 35 36 36 37 37 38 38 39 39 40 40 41 42 42 43 44 45 45 45 46
33 32 31 31 31 32 32 31 30 30 30 30 30 30 30 30 30 30 30 30 30 30 30 31 31 32 33 34 34 35 35 36 36 36 37 38 39 40 40 41 42 43 43 44 44 45 46 47 47
33 32 32 32 32 32 32 31 30 31 31 30 30 30 30 30 29 29 29 30 30 30 30 30 31 31 32 33 34 35 35 36 36 36 37 38 38 39 40 40 41 42 43 44 45 45 47 48 48
34 33 32 32 32 32 32 31 30 31 31 30 30 30 30 29 29 29 29 30 30 30 30 30 30 31 32 33 34 34 35 36 36 36 37 38 38 38 39 40 41 42 43 44 45 46 47 48 49
35 34 33 33 33 33 33 32 31 31 31 31 31 30 30 30 29 29 30 29 29 29 29 30 30 31 32 33 33 34 34 35 35 36 37 38 38 39 39 40 41 42 43 45 45 45 46 47 48
36 34 33 34 34 34 34 33 32 31 31 31 30 30 30 29 29 29 29 29 29 29 29 30 30 30 31 31 32 33 33 34 35 36 37 37 38 38 38 39 40 41 42 42 43 45 46 47 47
36 35 35 35 35 35 35 34 32 32 31 30 29 29 29 29 29 29 29 29 29 29 29 30 30 30 30 30 31 32 33 33 34 35 36 37 37 37 38 38 39 40 41 41 42 43 44 45 45
36 36 36 36 36 36 35 36 32 31 30 29 28 29 29 29 29 29 29 29 29 29 29 30 30 29 30 30 31 32 33 33 34 35 35 36 36 37 37 38 39 40 40 41 41 41 41 42 43
37 37 37 37 37 38 35 35 33 30 29 28 28 28 29 29 29 29 30 30 30 30 30 30 30 30 30 31 32 32 32 33 34 35 35 35 35 36 37 38 39 39 39 39 39 40 40 41 42
37 37 37 37 38 38 35 35 33 30 29 28 29 29 29 29 29 29 29 30 30 30 30 30 30 30 31 31 31 32 32 33 34 34 34 35 36 36 37 38 38 38 38 38 39 39 39 40 41
37 37 37 37 37 36 36 35 33 30 28 28 28 29 29 29 29 29 29 30 29 29 29 30 30 30 31 31 32 32 33 33 33 34 34 35 36 37 37 37 37 37 37 37 37 37 38 38 39
38 38 36 37 37 36 36 35 32 30 28 28 28 28 29 29 29 29 30 30 30 30 29 29 30 30 31 31 32 33 33 33 34 34 35 35 35 36 36 36 36 36 36 35 35 35 36 36 36
37 36 36 36 36 36 36 35 32 30 28 28 27 28 28 29 29 29 29 30 30 30 30 30 31 31 31 32 33 33 34 34 34 35 35 35 34 35 35 35 35 35 33 32 33 33 34 34 34
38 36 36 36 36 35 35 34 31 29 28 27 27 27 28 28 28 28 29 29 29 30 30 31 31 32 32 33 33 34 35 35 35 36 35 35 35 35 35 34 33 32 31 32 32 33 33 33 32
37 37 36 35 35 35 35 34 31 29 28 28 27 26 26 27 27 28 28 28 29 29 30 31 31 32 33 33 33 34 35 35 35 35 35 34 34 33 32 32 32 31 31 32 32 32 31 31 31
Wind_Direction
235 235 235 236 236 237 238 237 236 235 235 235 236 236 236 237 238 241 241 241 241 243 245 246 248 250 252 252 252 253 254 254 255 256 256 258 258 260 262 262 262 262 262 263 265 267 268 268 270
235 235 236 236 237 237 236 236 235 235 235 236 235 235 236 237 238 240 242 242 243 245 246 248 250 251 253 253 253 254 255 255 256 257 258 259 260 261 262 263 264 264 263 263 263 265 267 268 268
234 235 236 236 237 236 235 234 234 234 235 236 236 236 236 238 239 240 242 243 244 246 248 250 251 251 251 252 252 253 255 256 258 259 260 261 262 263 263 264 266 266 266 265 265 266 267 268 268
234 235 235 236 235 234 234 233 233 233 234 235 236 236 237 238 239 240 242 244 246 247 249 250 251 252 252 253 254 255 256 257 258 260 261 263 263 264 264 265 266 267 267 267 266 267 267 268 268
234 234 235 234 234 233 233 233 232 232 234 235 236 237 237 238 240 242 244 246 248 249 250 250 251 252 254 254 255 256 257 258 260 261 262 263 265 266 266 266 266 267 266 267 267 268 268 269 268
233 233 234 233 233 233 233 233 232 233 234 235 236 237 238 239 241 243 245 247 248 248 249 250 251 252 254 256 257 257 259 260 261 262 263 264 265 266 267 267 268 268 266 267 267 267 267 268 268
232 232 233 232 233 233 233 233 233 233 234 235 236 238 239 240 241 243 245 247 247 248 249 251 253 254 256 257 258 259 261 262 263 264 265 266 266 267 268 268 269 269 268 268 267 266 266 267 267
232 233 232 232 233 234 234 234 234 234 235 236 237 239 240 241 242 244 245 246 247 249 251 253 254 256 257 258 260 261 262 264 265 266 267 268 269 269 270 270 269 269 268 268 267 267 266 266 266
233 233 233 233 234 235 236 236 235 235 236 237 239 240 241 242 243 243 245 246 248 250 252 254 256 257 259 260 261 263 264 266 267 268 269 270 270 271 271 272 272 271 269 268 267 267 267 266 266
234 234 234 235 236 236 236 237 237 236 237 238 239 241 241 241 243 244 245 247 249 251 253 255 257 258 259 261 263 264 266 267 269 270 271 271 272 272 273 273 273 272 270 269 268 267 267 266 266
235 235 234 236 236 237 238 238 238 238 238 238 239 240 241 242 243 245 246 248 250 253 255 256 257 258 260 262 264 266 267 268 269 270 271 272 272 273 273 273 272 271 270 269 268 266 265 266 266
235 235 236 237 237 237 238 238 238 238 238 239 239 241 241 242 243 245 247 249 251 254 256 257 259 261 263 265 266 268 269 269 270 272 272 273 273 273 273 272 271 270 269 268 267 266 266 265 265
236 236 237 237 237 238 238 238 239 238 239 239 240 241 241 242 244 245 248 250 253 256 258 259 261 263 265 266 268 269 270 271 272 273 274 274 274 274 273 273 271 269 268 268 267 266 266 265 265
236 236 237 238 238 238 238 238 238 238 239 239 240 241 242 243 244 247 249 252 255 257 259 261 262 263 265 267 269 270 271 272 273 274 275 275 275 274 273 272 272 270 270 269 268 267 267 265 264
236 236 236 237 238 238 238 237 238 237 238 239 241 242 243 244 246 249 251 254 256 258 260 261 262 264 266 269 270 271 272 273 275 275 276 275 274 273 273 273 273 272 271 270 269 268 268 267 266
236 236 237 238 238 239 239 237 237 238 239 239 241 242 243 245 247 250 253 255 256 258 259 262 264 266 268 269 270 271 273 275 276 277 277 275 274 274 273 273 273 273 272 271 269 267 267 267 266
236 237 238 238 239 239 240 239 238 239 239 240 241 243 244 247 249 252 253 254 256 258 260 263 266 268 269 270 270 272 273 275 277 279 279 277 275 275 274 274 273 273 273 272 270 267 267 267 267
237 238 239 239 239 240 240 239 238 238 239 240 242 244 246 248 250 252 253 254 257 259 262 264 266 268 270 271 272 272 274 275 278 280 280 278 277 276 276 276 276 276 276 274 271 269 268 267 267
237 238 240 240 240 240 240 239 238 239 239 241 242 244 247 249 250 252 254 256 259 261 264 266 267 269 271 272 273 273 274 276 279 281 281 280 279 279 278 278 278 277 277 277 275 272 269 268 267
237 238 239 240 240 241 241 239 238 239 240 241 243 245 247 248 250 253 256 258 261 263 265 267 269 271 272 273 274 274 275 277 279 282 281 280 280 280 279 279 279 280 279 277 276 273 271 269 268
237 238 239 240 241 242 243 240 239 240 242 243 244 246 248 249 251 253 256 259 261 263 266 268 270 272 273 274 274 275 276 278 280 282 282 281 281 280 281 280 280 280 281 280 278 276 274 271 269
237 237 239 240 241 241 243 243 238 240 241 243 244 246 248 249 251 253 256 259 261 264 267 269 271 272 274 275 276 277 277 279 281 282 283 283 282 281 282 282 282 283 282 282 282 279 275 271 270
236 236 238 239 241 242 242 245 239 240 240 242 245 248 249 250 252 254 257 259 261 264 268 270 271 273 275 277 278 279 279 280 282 283 284 283 283 282 282 283 283 285 285 285 283 280 276 273 271
234 235 237 239 241 242 241 244 241 239 239 242 246 248 249 251 253 256 258 260 263 266 269 270 272 274 276 277 278 280 280 281 282 283 284 284 284 284 284 284 285 287 287 286 283 281 279 276 272
232 235 237 239 240 242 241 243 242 240 240 242 245 247 249 252 254 256 258 260 263 266 269 271 272 274 276 278 278 280 281 282 283 284 285 285 285 284 284 285 287 288 288 286 284 282 280 277 273
233 234 237 240 241 242 242 242 242 242 242 244 247 249 250 253 255 257 259 261 263 265 267 269 272 274 276 277 279 281 282 283 283 284 286 287 287 286 286 287 288 288 287 286 285 284 281 277 274
232 233 236 239 241 242 242 242 243 243 245 246 248 250 252 254 256 257 259 262 263 265 267 269 272 275 277 279 280 282 282 283 284 284 286 288 289 288 287 288 288 288 288 287 286 285 281 278 275
231 232 232 235 238 240 242 243 243 244 246 248 251 253 253 254 256 258 260 262 264 265 267 270 272 274 277 279 280 282 283 284 284 284 286 287 288 288 287 288 289 289 288 288 287 286 283 281 278
229 230 231 233 236 239 242 244 245 247 248 251 253 254 253 254 256 259 261 263 264 266 269 270 273 275 278 280 281 283 284 285 284 284 285 285 286 287 288 288 288 288 288 288 288 286 283 280 278
229 229 230 233 235 238 242 244 245 248 250 252 253 253 253 254 257 259 260 262 264 267 270 272 274 276 279 281 282 284 284 285 285 284 284 284 284 285 288 288 287 287 288 289 288 287 285 282 277
Height
5814 5816 5818 5820 5823 5825 5827 5829 5831 5833 5834 5835 5837 5839 5841 5843 5845 5848 5848 5848 5848 5849 5850 5851 5852 5853 5854 5854 5855 5856 5856 5857 5857 5858 5858 5858 5858 5859 5859 5858 5858 5858 5858 5858 5858 5858 5858 5858 5857
5809 5811 5813 5815 5817 5820 5823 5825 5827 5828 5830 5831 5833 5835 5837 5838 5840 5842 5842 5843 5845 5846 5847 5848 5849 5850 5850 5851 5851 5852 5853 5853 5854 5854 5854 5855 5855 5855 5855 5855 5855 5855 5854 5855 5855 5855 5855 5854 5854
5804 5806 5809 5810 5813 5816 5818 5820 5822 5823 5825 5827 5829 5830 5832 5834 5836 5837 5838 5840 5841 5842 5843 5844 5845 5846 5847 5847 5848 5848 5849 5849 5850 5850 5850 5851 5851 5851 5851 5851 5851 5851 5851 5851 5851 5851 5851 5850 5850
5799 5801 5804 5806 5808 5811 5813 5815 5816 5818 5820 5822 5824 5826 5828 5830 5832 5833 5834 5836 5837 5838 5839 5840 5841 5842 5843 5843 5844 5845 5845 5845 5846 5846 5846 5846 5846 5847 5847 5847 5847 5846 5846 5846 5846 5846 5846 5846 5846
5794 5796 5799 5801 5804 5806 5808 5809 5811 5813 5815 5817 5819 5821 5823 5825 5827 5828 5830 5832 5833 5834 5835 5836 5837 5838 5838 5839 5840 5840 5841 5841 5841 5841 5841 5842 5842 5842 5842 5842 5842 5841 5841 5841 5841 5841 5841 5841 5841
5789 5791 5794 5796 5799 5800 5802 5804 5806 5808 5811 5813 5815 5817 5819 5821 5822 5824 5826 5827 5828 5829 5830 5831 5832 5833 5834 5834 5835 5835 5836 5836 5836 5836 5836 5836 5836 5836 5836 5836 5836 5836 5836 5836 5835 5836 5836 5836 5835
5785 5786 5789 5791 5793 5795 5797 5799 5801 5803 5805 5808 5810 5812 5814 5816 5817 5819 5820 5822 5823 5824 5825 5826 5827 5828 5829 5829 5830 5830 5831 5831 5831 5831 5831 5831 5831 5831 5830 5830 5830 5830 5830 5829 5829 5829 5829 5829 5829
5778 5782 5783 5786 5788 5790 5792 5793 5796 5798 5800 5802 5805 5807 5809 5811 5812 5814 5815 5817 5818 5819 5820 5821 5822 5823 5823 5824 5824 5825 5825 5825 5825 5825 5825 5825 5825 5824 5824 5824 5823 5823 5823 5823 5822 5822 5822 5822 5822
5772 5776 5779 5781 5783 5784 5786 5788 5790 5792 5795 5797 5799 5802 5804 5805 5807 5808 5810 5811 5813 5814 5815 5816 5817 5817 5818 5818 5819 5819 5819 5819 5819 5819 5818 5818 5818 5817 5817 5816 5816 5815 5815 5815 5815 5815 5815 5815 5815
5766 5770 5774 5775 5777 5779 5780 5782 5784 5787 5789 5791 5794 5796 5798 5799 5801 5803 5804 5806 5807 5808 5809 5810 5811 5811 5812 5812 5812 5812 5813 5812 5812 5812 5811 5811 5810 5809 5809 5809 5808 5807 5807 5806 5806 5806 5806 5806 5807
5760 5764 5767 5768 5770 5772 5774 5776 5779 5781 5784 5786 5787 5789 5791 5793 5795 5797 5798 5800 5801 5802 5803 5804 5805 5805 5806 5806 5806 5806 5806 5805 5805 5804 5804 5803 5802 5801 5800 5800 5799 5798 5798 5797 5797 5797 5797 5798 5798
5755 5758 5760 5762 5764 5766 5768 5770 5773 5775 5778 5779 5781 5783 5785 5788 5789 5791 5793 5794 5795 5796 5797 5798 5798 5799 5799 5799 5799 5799 5798 5798 5797 5797 5796 5795 5794 5793 5791 5790 5790 5789 5788 5788 5788 5788 5788 5788 5788
5748 5751 5753 5755 5757 5759 5762 5764 5766 5770 5771 5773 5775 5777 5779 5781 5783 5785 5786 5788 5789 5790 5790 5791 5791 5792 5792 5792 5791 5791 5791 5790 5789 5788 5787 5786 5785 5783 5782 5781 5780 5779 5779 5778 5778 5778 5778 5778 5779
5742 5744 5746 5748 5751 5753 5755 5758 5760 5764 5765 5767 5769 5771 5773 5775 5777 5778 5780 5781 5782 5783 5783 5784 5784 5784 5784 5784 5783 5783 5782 5782 5781 5780 5778 5777 5775 5774 5773 5772 5771 5770 5769 5768 5768 5768 5768 5768 5768
5734 5737 5740 5742 5744 5746 5749 5752 5755 5757 5758 5760 5762 5764 5766 5768 5770 5772 5773 5774 5775 5776 5776 5777 5777 5777 5777 5776 5775 5775 5774 5773 5772 5771 5769 5767 5766 5765 5764 5763 5761 5760 5759 5758 5758 5758 5757 5757 5758
5727 5730 5733 5736 5738 5740 5743 5746 5748 5749 5751 5754 5756 5758 5760 5762 5763 5765 5766 5767 5768 5768 5769 5769 5769 5769 5769 5768 5767 5766 5765 5764 5763 5761 5760 5758 5757 5756 5754 5753 5752 5750 5749 5748 5747 5746 5746 5746 5746
5720 5723 5726 5729 5731 5732 5735 5739 5742 5743 5745 5747 5749 5751 5753 5755 5757 5758 5759 5760 5760 5761 5762 5762 5762 5761 5761 5760 5759 5758 5757 5755 5754 5752 5750 5749 5747 5746 5744 5743 5741 5740 5738 5737 5735 5735 5735 5735 5734
5714 5717 5719 5722 5724 5725 5728 5732 5734 5736 5738 5740 5743 5745 5746 5748 5750 5751 5751 5752 5753 5754 5754 5754 5754 5753 5752 5752 5751 5749 5748 5747 5745 5743 5741 5739 5737 5735 5733 5732 5730 5728 5727 5725 5724 5723 5722 5722 5722
5705 5708 5711 5714 5716 5718 5721 5724 5727 5729 5731 5734 5736 5738 5740 5741 5742 5743 5744 5745 5746 5746 5746 5746 5746 5745 5744 5743 5742 5741 5740 5738 5736 5734 5732 5729 5727 5725 5723 5721 5719 5717 5715 5713 5711 5710 5710 5709 5709
5697 5700 5704 5707 5709 5711 5713 5716 5720 5722 5724 5727 5729 5731 5732 5734 5735 5736 5737 5738 5738 5738 5738 5738 5737 5736 5735 5734 5732 5731 5730 5729 5727 5724 5722 5719 5717 5715 5713 5711 5708 5706 5704 5701 5699 5697 5696 5696 5695
5689 5693 5696 5698 5701 5703 5706 5709 5713 5715 5717 5720 5722 5723 5725 5727 5728 5729 5730 5730 5730 5731 5730 5730 5729 5728 5726 5725 5723 5722 5721 5719 5717 5715 5712 5710 5707 5704 5702 5700 5698 5695 5693 5690 5688 5685 5683 5683 5682
5681 5685 5687 5690 5692 5695 5698 5700 5706 5708 5710 5712 5715 5716 5718 5719 5720 5721 5722 5723 5723 5723 5722 5721 5720 5719 5717 5716 5715 5713 5712 5710 5708 5706 5703 5700 5697 5694 5692 5690 5687 5685 5682 5679 5676 5672 5670 5670 5670
5672 5675 5679 5681 5683 5686 5690 5692 5698 5700 5703 5705 5707 5709 5710 5711 5713 5714 5714 5715 5715 5714 5714 5712 5711 5710 5709 5707 5706 5704 5703 5701 5699 5696 5693 5690 5687 5684 5682 5680 5677 5674 5671 5667 5664 5660 5658 5657 5657
5663 5667 5670 5672 5674 5678 5683 5684 5689 5693 5696 5698 5700 5701 5702 5703 5705 5706 5706 5706 5706 5706 5705 5704 5703 5702 5701 5699 5698 5696 5694 5692 5690 5687 5684 5680 5678 5675 5672 5669 5667 5663 5660 5656 5653 5649 5647 5646 5646
5654 5659 5662 5663 5666 5670 5675 5676 5681 5686 5688 5690 5692 5693 5694 5696 5697 5697 5698 5698 5698 5698 5697 5696 5694 5693 5692 5690 5688 5686 5684 5682 5679 5677 5674 5671 5668 5665 5663 5660 5657 5653 5650 5646 5643 5639 5637 5636 5635
5646 5650 5654 5657 5660 5663 5665 5668 5675 5678 5680 5682 5684 5685 5686 5688 5688 5689 5689 5690 5690 5689 5688 5687 5686 5685 5683 5681 5679 5677 5675 5672 5670 5667 5664 5661 5658 5656 5653 5650 5647 5643 5640 5636 5633 5630 5628 5626 5625
5636 5640 5646 5648 5651 5654 5657 5662 5667 5670 5672 5674 5676 5677 5678 5679 5680 5680 5681 5681 5681 5681 5680 5679 5677 5676 5674 5672 5670 5668 5665 5663 5660 5657 5655 5652 5648 5646 5643 5640 5637 5634 5630 5627 5624 5621 5619 5617 5616
5628 5632 5636 5639 5642 5645 5649 5654 5658 5662 5664 5666 5668 5669 5670 5671 5672 5672 5672 5672 5672 5672 5671 5669 5668 5666 5665 5663 5661 5659 5656 5653 5650 5647 5645 5642 5639 5636 5634 5631 5628 5625 5621 5618 5615 5612 5610 5608 5607
5620 5624 5627 5631 5634 5639 5642 5648 5650 5653 5655 5658 5659 5660 5662 5663 5663 5664 5664 5663 5663 5662 5662 5660 5659 5657 5656 5653 5651 5649 5646 5643 5640 5637 5635 5632 5630 5627 5625 5622 5619 5616 5613 5610 5607 5604 5602 5600 5599
5610 5615 5620 5624 5627 5630 5634 5641 5642 5644 5647 5649 5651 5652 5653 5655 5655 5655 5655 5655 5654 5654 5653 5651 5650 5648 5646 5644 5641 5639 5636 5633 5630 5627 5625 5623 5620 5618 5616 5613 5611 5608 5606 5603 5600 5597 5595 5593 5592